Regional Weather Roundup
Issued by NWS

Home | Current Version | Previous Version | Graphics & Text | Print | Product List | Glossary Off
Versions: 1 2 3 4 5 6 7 8 9 10 11 12 13 14 15 16 17 18 19 20 21 22 23 24 25 26 27 28 29 30 31 32 33 34 35 36 37 38 39 40 41 42 43 44 45 46 47 48 49 50

000
ASUS43 KDTX 222210
RWRMI
MICHIGAN HOURLY REGIONAL WEATHER ROUNDUP
NATIONAL WEATHER SERVICE DETROIT/PONTIAC MI
500 PM EST MON JAN 22 2018

NOTE: "FAIR" INDICATES FEW OR NO CLOUDS BELOW 12,000 FEET WITH NO
SIGNIFICANT WEATHER AND/OR OBSTRUCTION TO VISIBILITY.

MIZ047>049-052>055-059>063-066>070-074>076-081>083-222300-
SOUTHEAST LOWER MICHIGAN

CITY           SKY/WX    TMP DP  RH WIND       PRES   REMARKS
ADRIAN         LGT RAIN  50  46  86 S13       29.61F
ALMA           FOG       36  36 100 E3        29.58F VSB 1/2
ANN ARBOR      CLOUDY    51  48  89 SE10      29.61F
BAD AXE        CLOUDY    40  40 100 CALM      29.64F FOG
CARO           CLOUDY    46  46  97 SE5       29.60F
DETROIT CITY   MOCLDY    50  46  86 S10       29.64F
DETROIT        CLOUDY    50  47  89 S10       29.64F
FLINT          CLOUDY    50  46  86 S13       29.60F
GROSSE ILE     CLOUDY    42  40  93 S9        29.64F
HILLSDALE      CLOUDY    50  45  81 S13G18    29.57F
HOWELL         CLOUDY    51  47  88 S9        29.59F

CITY           SKY/WX    TMP DP  RH WIND       PRES   REMARKS
JACKSON        CLOUDY    51  47  86 S14       29.58S
LAMBERTVILLE   CLOUDY    54  47  76 S10G17    29.62F
LANSING        CLOUDY    51  48  89 S9        29.57S
LAPEER         CLOUDY    46  45  97 SE6       29.62F FOG
MONROE         CLOUDY    51  45  80 S9        29.62F
MT. CLEMENS    CLOUDY    45  41  87 SE8       29.66F
PONTIAC        CLOUDY    51  48  89 S8        29.60F
PORT HOPE        N/A     38  37  97 SE9       29.62F WCI  31
PORT HURON     CLOUDY    46  43  87 SE8       29.66F
TRI CITIES     FOG       36  36 100 NE6       29.59F VSB 1/4 WCI  31
MIDLAND        CLOUDY    37  37 100 CALM      29.59S FOG
TROY           MOCLDY    51  47  87 S7        29.65S
SAGINAW HB     CLOUDY    41  41 100 SE5       29.59S FOG
$$
MIZ043>046-050>051-056>058-064>065-071>073-077>080-222300-
SOUTHWEST LOWER MICHIGAN

CITY           SKY/WX    TMP DP  RH WIND       PRES   REMARKS
BATTLE CREEK   LGT RAIN  51  48  89 S13       29.56R FOG
BENTON HARBOR  CLOUDY    52  48  86 S8        29.52S
BIG RAPIDS     LGT SNOW  35  33  92 SE5       29.55F WCI  31
COLDWATER      CLOUDY    52  49  90 S9        29.57R
FREMONT        DRIZZLE   39  38  93 E7        29.52F WCI  34
HOLLAND        LGT RAIN  49  47  93 S7        29.52S FOG
GRAND RAPIDS   LGT RAIN  43  42  97 E5        29.54S VSB 3/4
IONIA          LGT RAIN  40  40 100 CALM      29.56S
KALAMAZOO      LGT RAIN  50  48  93 S13       29.55S FOG
LUDINGTON      DRIZZLE   39  39 100 E10G16    29.49F WCI  32
MARSHALL       CLOUDY    52  48  86 S13G20    29.56S
MOUNT PLEASANT LGT RAIN  37  35  96 NE8       29.57F WCI  30
MUSKEGON       FOG       44  42  93 SE8       29.52S VSB 1
SOUTH HAVEN    CLOUDY    52  50  92 S8        29.52S
$$
MIZ016>042-222300-
NORTHERN LOWER MICHIGAN

CITY           SKY/WX    TMP DP  RH WIND       PRES   REMARKS
ALPENA         LGT RAIN  35  35 100 E13G21    29.67F FOG     WCI  26
BEAVER ISLAND  LGT SNOW  30  28  94 E23G31    29.67F WCI  17
BELLAIRE       LGT SNOW  35  34  98 NE6       29.61F WCI  30
CADILLAC       LGT RAIN  34  34  99 E9        29.54F WCI  27
CHARLEVOIX     LGT RAIN  32  32 100 E7        29.65F WCI  26
FRANKFORT      RAIN      37  37  99 E8        29.54F WCI  31
GAYLORD        FRZ RAIN  32  32 100 E7G17     29.61F FOG     WCI  26
GRAYLING       LGT SNOW  33  32  95 NE9       29.61S WCI  26
HARBOR SPRINGS LGT SNOW  31  30  97 E16G26    29.65F WCI  20
HOUGHTON LAKE  LGT RAIN  35  34  96 E12       29.58F FOG     WCI  27
MANISTEE       LGT RAIN  37  36  96 E13       29.51S FOG     WCI  29
OSCODA         MIX PCPN  34  33  99 E5        29.63F WCI  30
PELLSTON       FRZ RAIN  30  28  92 E16G25    29.69F FOG     WCI  19
ROGERS CITY    LGT RAIN  32  31  97 E17G26    29.72F WCI  21
TRAVERSE CITY  LGT RAIN  36  35  96 NE6       29.57F FOG     WCI  31
$$
MIZ007>008-015-222300-
EASTERN UPPER MICHIGAN

CITY           SKY/WX    TMP DP  RH WIND       PRES   REMARKS
KINROSS        LGT SNOW  26  24  92 E17G23    29.74F FOG     WCI  13
MACKINAC ISLAN LGT SNOW  29  29 100 E21G33    29.70F WCI  15
NEWBERRY       LGT SNOW  26  26  97 NE13      29.73F WCI  15
S. S. MARIE    SNOW      26  23  88 E12G24    29.77F VSB 1/2 WCI  16
MUNISING         N/A     29  29 100 NE14      29.75F WCI  18
$$
MIZ004>006-011>014-085-222300-
CENTRAL UPPER MICHIGAN

CITY           SKY/WX    TMP DP  RH WIND       PRES   REMARKS
ESCANABA       LGT SNOW  30  28  92 NE12G18   29.68S VSB 3/4 WCI  20
MENOMINEE      LGT SNOW  30  28  92 NE28G33   29.60F VSB 3/4 WCI  15
SAWYER-GWINN   LGT SNOW  27  25  93 NE17G29   29.72S VSB 1   WCI  14
$$
MIZ001>003-009>011-084-222300-
WESTERN UPPER MICHIGAN

CITY           SKY/WX    TMP DP  RH WIND       PRES   REMARKS
IRON MOUNTAIN  SNOW      29  26  89 N13       29.65R VSB 1/4 WCI  19
HOUGHTON       LGT SNOW  25  20  81 NE13      29.82F VSB 1   WCI  14
COPPER HARBOR    N/A     26  23  88 E21G28    29.89F WCI  12
IRONWOOD       LGT SNOW  25  23  92 NE14G22   29.77F VSB 1   WCI  13
$$

ABBREVIATIONS USED IN REMARKS
   TC - TEMPERATURE IN CELSIUS
  WCI - WIND CHILL INDEX
   HX - HEAT INDEX
  VSB - VISIBILITY





USA.gov is the U.S. government's official web portal to all federal, state and local government web resources and services.